Regional Weather Roundup
Issued by NWS

Home | Current Version | Previous Version | Text Only | Print | Product List | Glossary On
Versions: 1 2 3 4 5 6 7 8 9 10 11 12 13 14 15 16 17 18 19 20 21 22 23 24 25 26 27 28 29 30 31 32 33 34 35 36 37 38 39 40 41 42 43 44 45 46 47 48 49 50
000
ASUS43 KDTX 201810
RWRMI
MICHIGAN HOURLY REGIONAL WEATHER ROUNDUP
NATIONAL WEATHER SERVICE DETROIT/PONTIAC MI
200 PM EDT FRI APR 20 2018

NOTE: "FAIR" INDICATES FEW OR NO CLOUDS BELOW 12,000 FEET WITH NO
SIGNIFICANT WEATHER AND/OR OBSTRUCTION TO VISIBILITY.

MIZ047>049-052>055-059>063-066>070-074>076-081>083-201900-
SOUTHEAST LOWER MICHIGAN

CITY           SKY/WX    TMP DP  RH WIND       PRES   REMARKS
ADRIAN         FAIR      55  19  24 N10       30.47F
6HR MIN TEMP:  35; 6HR MAX TEMP:  55;

ALMA           FAIR      53  22  30 NW8       30.48F
6HR MIN TEMP:  35; 6HR MAX TEMP:  53;

ANN ARBOR      FAIR      54  17  23 VRB6G18   30.46F
BAD AXE        FAIR      48  13  24 N8        30.49S
6HR MIN TEMP:  34; 6HR MAX TEMP:  48;

CARO           FAIR      49  18  29 N10       30.48S
DETROIT CITY   FAIR      54  17  23 N7        30.46F
6HR MIN TEMP:  36; 6HR MAX TEMP:  54;

DETROIT        FAIR      54  17  23 VRB3      30.47S
6HR MIN TEMP:  36; 6HR MAX TEMP:  55;

FLINT          FAIR      52  22  30 N14G20    30.48S
6HR MIN TEMP:  32; 6HR MAX TEMP:  52;

GROSSE ILE     FAIR      45  32  58 S10       30.47S
6HR MIN TEMP:  35; 6HR MAX TEMP:  47;

HILLSDALE      FAIR      54  18  24 NW10      30.45F
HOWELL         FAIR      52  19  27 NW13G18   30.47S
6HR MIN TEMP:  33; 6HR MAX TEMP:  52;


CITY           SKY/WX    TMP DP  RH WIND       PRES   REMARKS
JACKSON        FAIR      54  16  22 NW9       30.46F
6HR MIN TEMP:  31; 6HR MAX TEMP:  54;

LAMBERTVILLE   FAIR      55  18  23 N7        30.47S
6HR MIN TEMP:  35; 6HR MAX TEMP:  55;

LANSING        FAIR      55  22  27 N13       30.48F
6HR MIN TEMP:  32; 6HR MAX TEMP:  55;

LAPEER         FAIR      50  18  27 N6G16     30.47S
6HR MIN TEMP:  32; 6HR MAX TEMP:  51;

MASON          FAIR      55  13  19 NW8       30.47F
6HR MIN TEMP:  35; 6HR MAX TEMP:  55;

MONROE         FAIR      52  15  23 N7        30.46F
6HR MIN TEMP:  34; 6HR MAX TEMP:  53;

MT. CLEMENS    SUNNY     50  23  35 N8        30.45F
6HR MIN TEMP:  33; 6HR MAX TEMP:  50;

PONTIAC        FAIR      52  20  28 N13       30.46S
6HR MIN TEMP:  34; 6HR MAX TEMP:  52;

PORT HOPE        N/A     40  31  70 N5        30.48F
6HR MIN TEMP:  35; 6HR MAX TEMP:  40;

PORT HURON     FAIR      46  23  39 NE9       30.47S
TRI CITIES     FAIR      52  27  38 CALM      30.49S
6HR MIN TEMP:  33; 6HR MAX TEMP:  52;

MIDLAND        FAIR      52  24  32 N5        30.47S
6HR MIN TEMP:  30; 6HR MAX TEMP:  53;

TROY           FAIR      53  16  23 NW6       30.47F
SAGINAW HB     FAIR      50  21  32 NE3       30.49S
$$
MIZ043>046-050>051-056>058-064>065-071>073-077>080-201900-
SOUTHWEST LOWER MICHIGAN

CITY           SKY/WX    TMP DP  RH WIND       PRES   REMARKS
BATTLE CREEK   FAIR      56  18  22 VRB6      30.48F
6HR MIN TEMP:  32; 6HR MAX TEMP:  56;

BENTON HARBOR  FAIR      49  23  36 W9        30.52F
6HR MIN TEMP:  28; 6HR MAX TEMP:  51;

BIG RAPIDS     FAIR      54  11  18 NW7       30.46F
6HR MIN TEMP:  28; 6HR MAX TEMP:  54;

COLDWATER      FAIR      54  19  25 N7        30.48S
6HR MIN TEMP:  32; 6HR MAX TEMP:  54;

FREMONT        FAIR      55  -1  10 N8        30.48F
6HR MIN TEMP:  29; 6HR MAX TEMP:  56;

HOLLAND        FAIR      52  26  36 W9        30.51F
6HR MIN TEMP:  33; 6HR MAX TEMP:  54;

GRAND RAPIDS   FAIR      57  23  26 W10       30.48F
6HR MIN TEMP:  37; 6HR MAX TEMP:  57;

IONIA          FAIR      55  15  21 NW3       30.47F
6HR MIN TEMP:  34; 6HR MAX TEMP:  55;

KALAMAZOO      FAIR      57  15  19 NW8G18    30.49F
6HR MIN TEMP:  32; 6HR MAX TEMP:  57;

LUDINGTON      FAIR      48  22  36 W6        30.50F
6HR MIN TEMP:  27; 6HR MAX TEMP:  48;

MARSHALL       FAIR      55  15  20 NW7       30.47F
6HR MIN TEMP:  32; 6HR MAX TEMP:  55;

MOUNT PLEASANT FAIR      54  23  30 N5        30.47F
6HR MIN TEMP:  36; 6HR MAX TEMP:  55;

MUSKEGON       FAIR      50  17  27 W12       30.51F
6HR MIN TEMP:  29; 6HR MAX TEMP:  52;

SOUTH HAVEN    FAIR      50  21  32 NW8       30.51F
$$
MIZ016>042-201900-
NORTHERN LOWER MICHIGAN

CITY           SKY/WX    TMP DP  RH WIND       PRES   REMARKS
ALPENA         FAIR      44  17  33 N7        30.48S
6HR MIN TEMP:  29; 6HR MAX TEMP:  44;

BEAVER ISLAND  FAIR      44  17  33 W8        30.49S
6HR MIN TEMP:  26; 6HR MAX TEMP:  44;

BELLAIRE       FAIR      48  14  25 CALM      30.49F
6HR MIN TEMP:  21; 6HR MAX TEMP:  48;

CADILLAC       FAIR      50  17  26 NW9G17    30.45F
CHARLEVOIX     FAIR      45  19  36 W7        30.52S
6HR MIN TEMP:  27; 6HR MAX TEMP:  45;

FRANKFORT      FAIR      46  18  32 SW7       30.51S
GAYLORD        FAIR      49  15  25 VRB5      30.45S
6HR MIN TEMP:  23; 6HR MAX TEMP:  49;

GRAYLING       FAIR      48  15  26 NW10      30.45F
6HR MIN TEMP:  26; 6HR MAX TEMP:  48;

HARBOR SPRINGS FAIR      40  24  54 SW7       30.49S WCI  35
HOUGHTON LAKE  FAIR      50  14  23 SW5       30.46F
6HR MIN TEMP:  31; 6HR MAX TEMP:  50;

MANISTEE       FAIR      48  19  31 W12       30.50F
OSCODA         FAIR      40  24  52 E9        30.48S WCI  34
6HR MIN TEMP:  31; 6HR MAX TEMP:  41;

PELLSTON       FAIR      49  18  29 N8        30.47S
6HR MIN TEMP:  21; 6HR MAX TEMP:  51;

ROGERS CITY    FAIR      39  17  40 N5        30.49F
TRAVERSE CITY  FAIR      48  18  30 NE7       30.48S
6HR MIN TEMP:  25; 6HR MAX TEMP:  48;

$$
MIZ007>008-015-201900-
EASTERN UPPER MICHIGAN

CITY           SKY/WX    TMP DP  RH WIND       PRES   REMARKS
KINROSS        FAIR      46  14  27 N14       30.45F
6HR MIN TEMP:  29; 6HR MAX TEMP:  48;

MACKINAC ISLAN FAIR      39  24  54 SW9       30.47S WCI  33
6HR MIN TEMP:  29; 6HR MAX TEMP:  42;

NEWBERRY       FAIR      47  18  30 W5        30.44F
6HR MIN TEMP:  22; 6HR MAX TEMP:  50;

S. S. MARIE    FAIR      50  13  22 W7        30.45S
6HR MIN TEMP:  31; 6HR MAX TEMP:  50;

MUNISING         N/A     40  22  48 NW7       30.45F
6HR MIN TEMP:  24; 6HR MAX TEMP:  47;

$$
MIZ004>006-011>014-085-201900-
CENTRAL UPPER MICHIGAN

CITY           SKY/WX    TMP DP  RH WIND       PRES   REMARKS
MANISTIQUE     FAIR      46  15  29 S7        30.47F
6HR MIN TEMP:  26; 6HR MAX TEMP:  46;

ESCANABA       FAIR      51  20  29 S9        30.46F
6HR MIN TEMP:  25; 6HR MAX TEMP:  52;

MENOMINEE      FAIR      53  12  19 SW8       30.47F
6HR MIN TEMP:  23; 6HR MAX TEMP:  53;

SAWYER-GWINN   SUNNY     54   9  16 CALM      30.43F
$$
MIZ001>003-009>011-084-201900-
WESTERN UPPER MICHIGAN

CITY           SKY/WX    TMP DP  RH WIND       PRES   REMARKS
IRON MOUNTAIN  FAIR      57  12  17 CALM      30.41F
6HR MIN TEMP:  25; 6HR MAX TEMP:  57;

HOUGHTON       FAIR      52  16  24 W7        30.43F
6HR MIN TEMP:  34; 6HR MAX TEMP:  52;

COPPER HARBOR    N/A     42  26  53 CALM      30.44F
6HR MIN TEMP:  30; 6HR MAX TEMP:  44;

IRONWOOD       FAIR      53  12  19 CALM      30.44F
6HR MIN TEMP:  21; 6HR MAX TEMP:  54;

$$

ABBREVIATIONS USED IN REMARKS
   TC - TEMPERATURE IN CELSIUS
  WCI - WIND CHILL INDEX
   HX - HEAT INDEX
  VSB - VISIBILITY





USA.gov is the U.S. government's official web portal to all federal, state and local government web resources and services.